Regional Weather Roundup
Issued by NWS

Home | Current Version | Previous Version | Text Only | Print | Product List | Glossary Off
Versions: 1 2 3 4 5 6 7 8 9 10 11 12 13 14 15 16 17 18 19 20 21 22 23 24 25 26 27 28 29 30 31 32 33 34 35 36 37 38 39 40 41 42 43 44 45 46 47 48 49 50

000
ASUS43 KOAX 282210
RWRNE

WEATHER ROUNDUP FOR NEBRASKA
NATIONAL WEATHER SERVICE OMAHA NE
500 PM CDT THU AUG 28 2014

NOTES: SATELLITE DATA IS BEING USED TO AUGMENT CLOUD COVER ABOVE
       12000 FEET.
       "FAIR" INDICATES FEW OR NO CLOUDS BELOW 12,000 FEET WITH NO
       SIGNIFICANT WEATHER AND/OR OBSTRUCTIONS TO VISIBILITY.

  * THESE STATIONS DO NOT REPORT WEATHER SUCH AS RAIN...SNOW OR FOG.

NEZ001>004-019>022-054>056-282300-
NEBRASKA PANHANDLE

CITY           SKY/WX    TMP DP  RH WIND       PRES   REMARKS
ALLIANCE       LGT RAIN  63  61  93 N15       30.01F
CHADRON        LGT RAIN  64  59  83 SW9       30.01F
KIMBALL        LGT RAIN  60  59  94 NW7       30.09S
SIDNEY         LGT RAIN  67  56  67 NW20      30.06F
$$

NEZ057>060-069>072-079>082-282300-
SOUTHWEST NEBRASKA

CITY           SKY/WX    TMP DP  RH WIND       PRES   REMARKS
NORTH PLATTE   MOSUNNY   80  61  52 W10       29.88F
IMPERIAL       MOSUNNY   78  60  53 NW18G24   29.94F
LEXINGTON      MOSUNNY   81  67  62 SE6       29.86F
MCCOOK         MOSUNNY   82  61  48 W8        29.89F
OGALLALA       PTSUNNY   74  57  54 N23G30    29.95S
$$

NEZ005>010-023>029-035>040-094-282300-
NORTH CENTRAL NEBRASKA

CITY           SKY/WX    TMP DP  RH WIND       PRES   REMARKS
VALENTINE      MOSUNNY   77  64  64 N10       29.89F
AINSWORTH      PTSUNNY   73  67  79 N14       29.88R
BROKEN BOW     PTSUNNY   82  68  62 SE8       29.85F
O`NEILL        MOSUNNY   82  69  66 S9        29.83F
ORD            MOSUNNY   81  66  60 S9        29.83F
THEDFORD         N/A    N/A N/A N/A N13       29.87F
$$

NEZ041-046>049-061>064-073>077-083>087-282300-
SOUTH CENTRAL NEBRASKA

CITY           SKY/WX    TMP DP  RH WIND       PRES   REMARKS
GRAND ISLAND   PTSUNNY   80  69  69 SW9       29.86F
AURORA         CLOUDY    78  71  77 S8        29.86S
HASTINGS       CLOUDY    78  67  68 S7        29.86F
HEBRON         PTSUNNY   81  65  59 S13G23    29.86F
HOLDREGE       SUNNY     79  63  58 SE6       29.87F
KEARNEY *      SUNNY     79  68  69 SW12      29.87S
YORK           CLOUDY    81 N/A N/A S12       29.86F
$$

NEZ011>018-030>034-042>045-282300-
NORTHEAST NEBRASKA

CITY           SKY/WX    TMP DP  RH WIND       PRES   REMARKS
NORFOLK        CLOUDY    78  70  76 S9        29.84F
ALBION         PTSUNNY   78  68  72 S9        29.84F
BLAIR          CLOUDY    81  71  73 S8        29.87F
FREMONT        CLOUDY    81  70  70 S7        29.86F
TEKAMAH        CLOUDY    80  73  79 SE9       29.85F
WAYNE          CLOUDY    78  73  82 S9        29.85F
$$

NEZ050>053-065>068-078-088>093-282300-
SOUTHEAST NEBRASKA

CITY           SKY/WX    TMP DP  RH WIND       PRES   REMARKS
LINCOLN        CLOUDY    80  69  69 S10       29.86F
OMAHA EPPLEY   CLOUDY    82  69  64 S10       29.86F
BEATRICE       CLOUDY    78  69  74 S8        29.87F
FALLS CITY     CLOUDY    86  75  69 CALM      29.85F HX  95
NEBRASKA CITY  CLOUDY    79  73  82 CALM      29.87F
PLATTSMOUTH    CLOUDY    80  71  73 S8        29.87F
$$

NEZ044-045-051>053-067-282300-
OMAHA AREA

CITY           SKY/WX    TMP DP  RH WIND       PRES   REMARKS
OMAHA EPPLEY   CLOUDY    82  69  64 S10       29.86F
BLAIR          CLOUDY    81  71  73 S8        29.87F
FREMONT        CLOUDY    81  70  70 S7        29.86F
MILLARD        CLOUDY    81  71  70 S6        29.86F
OFFUTT AFB     CLOUDY    81  77  86 S7        29.86F
PLATTSMOUTH    CLOUDY    80  71  73 S8        29.87F
WAHOO          CLOUDY    80  69  69 S8        29.86S
$$


USA.gov is the U.S. government's official web portal to all federal, state and local government web resources and services.